Location: Bourg-d�Oueil
(42.8588°N, 0.4991°E)
Time: 17:20:06
(UTC+00:00)

Cosmos 2333 Rocket - Pass Details

Date: 16 June 2021
Orbit: 841 x 861 km, 70.8° (Epoch: 04 August)

Event Time Altitude Azimuth Distance (km) Brightness Sun altitude
Exits shadow 21:09:03 18° 141° (SE) 1,964 3.4 -13.1°
Maximum altitude 21:11:44 26° 102° (ESE) 1,630 3.3 -13.4°
Drops below altitude 10° 21:16:22 10° 48° (NE) 2,493 4.7 -13.9°
Sets 21:19:11 0° 36° (NE) 3,431 5.6 -14.2°
